Hourly Data Report for April 19, 2016

All times are specified in Local Standard Time (LST). Add 1 hour to adjust for Daylight Saving Time where and when it is observed.

EMERSON AUTO
MANITOBA

49°00'00.000" N
97°14'15.000" W
242.00 m
5020881
71560
WEX

Download Data

Hourly Data (April 2016)
Hourly Data Report for April 19, 2016
Temp Definition
°C
Dew Point Temp Definition
°C
Rel Hum Definition
%
Wind Dir Definition
10's deg

Wind Spd Definition
km/h
Visibility Definition
km
Stn Press Definition
kPa
Hmdx Definition


Wind Chill Definition


Weather Definition


TIME
00:00 5.8 2.6 80 7 10   99.88     LegendNANA
01:00 2.6 1.5 92 6 11   99.83     LegendNANA
02:00 4.7 2.3 85 9 9   99.79     LegendNANA
03:00 4.3 2.6 89 9 9   99.75     LegendNANA
04:00 3.5 2.3 92 12 8   99.75     LegendNANA
05:00 3.1 2.5 96 10 4   99.74     LegendNANA
06:00 2.8 2.2 96 9 3   99.71     LegendNANA
07:00 4.5 2.9 89 9 8   99.71     LegendNANA
08:00 6.0 4.0 88 11 9   99.68     LegendNANA
09:00 7.7 4.9 83 12 10   99.67     LegendNANA
10:00 9.3 6.8 84 12 11   99.62     LegendNANA
11:00 11.1 8.8 86 15 14   99.57     LegendNANA
12:00 11.4 7.8 78 14 9   99.49     LegendNANA
13:00 12.4 8.5 77 17 14   99.44     LegendNANA
14:00 14.0 10.7 81 18 13   99.38     LegendNANA
15:00 14.8 11.3 79 17 13   99.32     LegendNANA
16:00 14.3 9.8 74 17 15   99.29     LegendNANA
17:00 14.4 10.4 77 19 15   99.23     LegendNANA
18:00 13.7 11.0 84 21 12   99.18     LegendNANA
19:00 12.8 11.3 90 21 6   99.14     LegendNANA
20:00 11.7 10.5 92 16 2   99.13     LegendNANA
21:00 11.0 10.1 94 15 4   99.12     LegendNANA
22:00 11.7 10.4 92 19 17   99.11     LegendNANA
23:00 11.2 10.2 94 19 14   99.07     LegendNANA

Notes on Data Quality.

Legend

  • E = Estimated
  • M = Missing
  • NA = Not Available
  • ‡ = Partner data that is not subject to review by the National Climate Archives
Date modified: